Погода в Горячинске

Погода в Горячинске : погода сейчас, прогноз погоды и архив. Всё, что Вы хотите узнать о погоде в Горячинске!

Поиск расширенной информации на нашем сайте:

Другие новости

Новости СМИ2

Главная страница сайта

Новости сайта

03.07.2017

Напоминаем, что на нашем специализированном сайте Метеоцентр.Азия вы можете получить высокодетализированные автоматические прогнозы погоды по пунктам России, СНГ и мира в авиационном формате (включающие направление и скорость ветра, видимость, явления погоды, количество и форму облачности, нижнюю и верхнюю границу облачности).


Погода в Горячинске - сегодня

Время (UTC), дата Ветер
(°,м/с) 
Видим.   Явления Облачность Т
(°С)
Тd
(°С)
f(%) Тe
(°С)
Pmin
(гПа)
dP
(гПа)
Po
(мм)
O2
(г/м3)
Тmin Tmax R s Состояние
почвы
06 15.06.18 270 (З) 20000 м    5/3 1000 м кучево-дожд., верхняя 
[Cb cap|Ci sp]
+13.7 +7.6 67 +14  1005.1  0.1  712  272           
09 15.06.18 230 (ЮЗ) 20000 м    3/3 1000 м 
[Cu med, cong]
+15.1 +4.8 50 +16  1004.9  712  271           
15 15.06.18 090 (В) н/о    6/6 1000 м 
[Sc]
+12.5 +8.1 75 +13  1007  0.6  713  273           
18 15.06.18 130 (ЮВ) н/о    4/4 1000 м 
[Sc]
+12.5 +8.2 75 +14  1007.2  0.2  713  273           
21 15.06.18 160 (Ю) 20000 м    8/6 1000 м верхняя 
[Sc|Ci sp]
+12.4 +9.2 81 +15  1008.7  1.4  714  273           
00 16.06.18 240 (ЮЗ) 20000 м    10/10 600 м 
[Sc]
+14.4 +10.3 76 +19  1009.3  0.9  715  272  +10.1        сухая 
09 16.06.18 270 (З) 2{10}  4000 м    10/10 300 м 
[St]
+12 +9.6 85 +14  1011.2  0.5  716  274           
15 16.06.18 200 (Ю) н/о  туман на расстоянии  8/5 600 м верхняя 
[Sc|Cc]
+10.8 +9.3 90 +13  1011.2  716  276           
18 16.06.18 100 (В) н/о    1/1 600 м 
[Sc]
+9.1 +8.2 94 +10  1010.8  -0.7  715  277           
21 16.06.18 160 (Ю) 10 км  дымка  1/1 600 м 
[Sc]
+8.5 +7.9 96 +10  1011.1  0.2  715  278           
03 17.06.18 290 (З) 20000 м    3/3 600 м 
[Cu Sc]
+14.5 +7.8 64 +15  1010.6  0.3  716  272           
06 17.06.18 270 (З) 20000 м    3/3 1000 м верхняя 
[Sc|Ci sp]
+14.4 +7.6 64 +15  1010.3  -0.3  715  272           
09 17.06.18 270 (З) 20000 м    4/3 1000 м верхняя 
[Sc|Ci sp]
+15.3 +7.3 59 +16  1009.7  -0.4  715  272           
15 17.06.18 080 (В) н/о    6/4 600 м верхняя 
[Sc|Ci sp]
+10.7 +7.7 82 +12  1011.4  0.6  716  276           
18 17.06.18 080 (В) н/о    1/1 1000 м 
[Sc]
+8.6 +7.5 93 +10  1012.4  0.5  716  278           
21 17.06.18 130 (ЮВ) 20000 м    ясно 
+8.4 +7.4 93 +9  1013  0.6  716  279           
03 18.06.18 270 (З) 20000 м    ясно 
+17.2 +7.4 52 +17  1012.2  0.1  717  271           
06 18.06.18 280 (З) 20000 м    3/0 верхняя 
[Ci sp]
+17.5 +7.6 52 +18  1011.7  -0.4  717  270           
09 18.06.18 290 (З) 20000 м    8/6 1000 м кучево-дожд., средняя, верхняя 
[Cb cap|Ac cast|Ci sp]
+15 +6.5 57 +15  1012.7  0.4  717  273           
15 18.06.18 090 (В) н/о    ясно 
+10.5 +7.4 81 +11  1013  -1  717  277           
18 18.06.18 080 (В) н/о    н/о 
+9.9 +6.9 82 +10  1012.9  -0.3  717  277           
21 18.06.18 110 (В) 20000 м    ясно 
+10 +7.2 83 +10  1012.9  0.1  717  277           
03 19.06.18 260 (З) 20000 м    ясно 
+18.3 +8.1 51 +19  1011  -0.7  716  269           
06 19.06.18 280 (З) 20000 м    ясно 
+22.4 +8.6 41 +23  1008.5  -1.6  715  265           
09 19.06.18 290 (З) 20000 м    1/0 верхняя 
[Ci sp]
+22.3 +8.7 42 +23  1007  -1.4  714  265           
Время (UTC), дата Ветер
(°,м/с) 
Видим.   Явления Облачность Т
(°С)
Тd
(°С)
f(%) Тe
(°С)
Pmin
(гПа)
dP
(гПа)
Po
(мм)
O2
(г/м3)
Тmin Tmax R s Состояние
почвы

Для получения пояснительной информации подведите курсор к названию столбца.

ПОГОДА в Горячинске - архив

Всё, что Вы хотите узнать о погоде в Горячинске - удобно и подробно!

Выберите нужную дату (начиная с 1 января 2015* года) и нажмите кнопку "Найти".
Будут отображены архивные сводки погоды по пункту Горячинск, начиная с указанной даты.


Отображать данные в формате CSV (для использования в таблицах Excel)


Внимание! Наш архив погоды предназначен исключительно для личного некоммерческого использования в познавательных целях. Если Вам необходимы официальные справки о состоянии погоды (для производственных, юридических, коммерческих и т.п. целей), обращайтесь в органы Росгидромета.

*Примечание: данная дата относится к архиву по метеостанциям СССР (Россия, СНГ, Балтия).
Архив по метеостанциям Зарубежной Европы и Азии (кроме Китая) хранится 10 дней, по другим регионам земного шара (Китай, Африка, Америка, Австралия, Океания) - 1 день.

Горячинск - район местоположения метеостанции


Название, широта, долгота, высота метеостанции:
Горячинск 53°ш. 108.3°д. 487 м над ур. моря [Российская Федерация]

Дополнительная информация

В oтличие oт бoльшинства пoгoдных сайтoв мы публикуем пoдрoбную метеoинфoрмацию в детальнoм прoфессиoнальнoм фoрмате.

Характеристики температуры и влажнoсти вoздуха измеряются на высoте 2 м в тени вдали oт зданий и деревьев.
Скoрoсть ветра измеряется на высoте 10 м (на урoвне рoста челoвека скoрoсть ветра ниже в 1.5-2 раза). Если метеoстанция нахoдится в гoрoде или в лесу, тo скoрoсть ветра занижена на 2-4 м/с пo сравнению с oткрытым местoм. Скoрoсть ветра над акватoриями крупных рек и oзёр, а также на вершинах хoлмoв на 2-5 м/с выше, чем в oбычных услoвиях.
Атмoсфернoе давление в разных тoчках местнoсти мoжет значительнo oтличаться oт давления на метеoстанции, в зависимoсти oт услoвий рельефа (при пoдъёме на 10 м давление пoнижается примернo на 1 мм рт.ст.).